Tracking 27428 objects as of 31-May-2023
HD Live streaming from Space Station
objects crossing your sky now

O3B FM17

Track O3B FM17 now!
10-day predictions
O3B FM17 is classified as:


NORAD ID: 44114
Int'l Code: 2019-020C
Perigee: 8,068.7 km
Apogee: 8,077.3 km
Inclination: 0.1 °
Period: 287.9 minutes
Semi major axis: 14444 km
RCS: Unknown
Launch date: April 4, 2019
Source: O3b Networks (O3B)
Launch site: FRENCH GUIANA (FRGUI)
Your satellite tracking list
Your tracking list is empty




NASA's NSSDC Master Catalog

Two Line Element Set (TLE):
1 44114U 19020C   23150.72883579 -.00000012  00000-0  00000-0 0  9990
2 44114   0.0595  21.8725 0002965  41.3571 296.8034  5.00115916 75825
Source of the keplerian elements: AFSPC